DW1345 Weather Reports


time (UTC)temp
F
wind
direction
speed
knots
gust
knots
rain 1hr
in
rain 24hr
in
rain mn
in
humidity
%
barometer
mb
20260507141542 43 258 4.3 0.0 0.00 0.00 0.06 78 1015.0
20260507140042 44 216 3.5 0.0 0.00 0.00 0.06 77 1014.8
20260507134539 44 249 2.6 0.0 0.00 0.00 0.06 75 1014.6
20260507133040 46 280 2.6 0.0 0.00 0.00 0.06 73 1014.5
20260507131537 47 242 3.5 0.0 0.00 0.00 0.06 74 1014.6
20260507130039 46 224 3.5 0.0 0.00 0.00 0.06 76 1014.4
20260507124531 45 255 4.3 0.0 0.00 0.00 0.06 75 1014.4
20260507123039 43 243 3.5 0.0 0.00 0.00 0.06 78 1014.3
20260507121529 44 246 2.6 0.0 0.00 0.00 0.06 83 1014.3
20260507120029 42 304 1.7 0.0 0.00 0.00 0.06 86 1014.4
20260507114527 40 296 0.9 0.0 0.00 0.00 0.06 86 1014.2
20260507113028 40 277 5.2 0.0 0.00 0.00 0.06 83 1014.1
20260507111525 42 244 5.2 0.0 0.00 0.00 0.05 81 1013.7
20260507110029 44 252 0.9 0.0 0.00 0.00 0.05 79 1013.5
20260507104523 42 182 1.7 0.0 0.00 0.00 0.05 83 1013.5
20260507103023 43 191 3.5 0.0 0.00 0.00 0.03 78 1013.5
20260507101520 44 236 3.5 0.0 0.00 0.00 0.03 81 1013.3
20260507100022 43 227 1.7 0.0 0.00 0.00 0.03 77 1013.3
20260507094520 43 192 2.6 0.0 0.00 0.00 0.03 76 1013.1
20260507093015 44 276 2.6 0.0 0.00 0.00 0.03 73 1013.0
20260507091513 45 248 1.7 0.0 0.00 0.00 0.03 71 1013.0
20260507090013 45 194 1.7 0.0 0.00 0.00 0.03 73 1012.8
20260507084513 44 212 1.7 0.0 0.00 0.00 0.03 74 1012.6
20260507083006 45 291 0.9 0.0 0.00 0.00 0.03 70 1012.5
20260507081504 45 277 0.0 0.0 0.00 0.00 0.03 69 1012.3
20260507080001 43 277 0.0 0.0 0.00 0.00 0.03 73 1012.3
20260507074601 42 280 0.9 0.0 0.00 0.00 0.03 74 1012.2
20260507073057 42 280 0.9 0.0 0.00 0.00 0.03 73 1012.0
20260507071554 44 266 0.9 0.0 0.00 0.00 0.03 74 1011.9
20260507070055 43 238 0.0 0.0 0.00 0.00 0.03 74 1011.8
20260507064606 44 236 0.0 0.0 0.00 0.00 0.03 76 1011.7
20260507063052 43 126 1.7 0.0 0.00 0.00 0.03 76 1011.5
20260507061545 42 137 2.6 0.0 0.00 0.00 0.03 76 1011.5
20260507060043 42 125 1.7 0.0 0.00 0.00 0.03 78 1011.5
20260507054543 41 121 3.5 0.0 0.00 0.00 0.03 80 1011.3
20260507053039 41 143 0.9 0.0 0.00 0.00 0.03 82 1011.1
20260507051535 39 136 3.5 0.0 0.00 0.00 0.03 84 1010.9
20260507050039 39 112 1.7 0.0 0.00 0.00 0.03 86 1011.0
20260507044531 38 80 1.7 0.0 0.00 0.00 0.03 88 1010.9
20260507043029 38 105 1.7 0.0 0.00 0.00 0.03 89 1010.8
20260507041545 39 72 1.7 0.0 0.00 0.00 0.03 91 1010.7
20260507040024 37 126 3.5 0.0 0.00 0.00 0.03 92 1010.6
20260507034522 37 107 3.5 0.0 0.00 0.00 0.03 92 1010.6
20260507033020 37 126 4.3 0.0 0.00 0.00 0.03 93 1010.6
20260507031518 37 124 2.6 0.0 0.00 0.00 0.03 93 1010.5
20260507030016 36 90 0.9 0.0 0.00 0.00 0.03 93 1010.2
20260507024516 36 119 2.6 0.0 0.00 0.00 0.03 93 1010.3
20260507023015 36 101 1.7 0.0 0.00 0.00 0.03 94 1010.5
20260507021514 35 63 0.9 0.0 0.00 0.00 0.03 93 1010.4
20260507020013 35 63 0.9 0.0 0.00 0.00 0.03 93 1010.3
20260507014523 35 64 2.6 0.0 0.00 0.00 0.03 93 1010.3
20260507013029 35 90 0.0 0.0 0.00 0.00 0.03 93 1010.2
20260507011513 35 53 0.0 0.0 0.00 0.00 0.03 93 1010.2
20260507010007 35 53 0.0 0.0 0.00 0.00 0.03 93 1010.2
20260507004505 35 53 0.0 0.0 0.00 0.00 0.03 93 1010.1
20260507003004 35 53 0.9 0.0 0.00 0.00 0.03 93 1010.1
20260507001503 35 53 0.9 0.0 0.00 0.00 0.03 92 1010.0
20260507000005 35 54 0.9 0.0 0.00 0.00 0.03 92 1010.0
20260506234600 35 54 1.7 0.0 0.00 0.00 0.03 92 1009.9
20260506233107 35 80 1.7 0.0 0.00 0.00 0.03 92 1009.8
20260506231555 36 117 0.0 0.0 0.00 0.00 0.03 92 1009.7
20260506230054 36 117 0.0 0.0 0.00 0.00 0.02 92 1009.6
20260506224553 36 125 0.0 0.0 0.00 0.00 0.02 92 1009.6
20260506223105 36 125 0.0 0.0 0.00 0.00 0.02 92 1009.6
20260506221549 36 125 0.0 0.0 0.00 0.00 0.01 91 1009.6
20260506220047 36 125 0.0 0.0 0.00 0.00 0.00 91 1009.4
20260506214546 36 125 0.0 0.0 0.00 0.00 0.09 91 1009.6
20260506213044 37 127 0.0 0.0 0.00 0.00 0.09 91 1009.3
20260506211546 37 127 0.0 0.0 0.00 0.00 0.09 91 1009.4
20260506210045 37 121 0.0 0.0 0.00 0.00 0.07 91 1009.4
20260506204541 37 120 2.6 0.0 0.00 0.00 0.06 91 1009.0
20260506203044 37 103 1.7 0.0 0.00 0.00 0.06 91 1009.0
20260506201539 38 129 1.7 0.0 0.00 0.00 0.06 91 1009.0
20260506200056 38 114 0.0 0.0 0.00 0.00 0.06 91 1008.8
20260506194539 38 125 0.0 0.0 0.00 0.00 0.06 91 1008.9
20260506193036 38 127 0.9 0.0 0.00 0.00 0.05 91 1008.7
20260506191536 38 62 0.0 0.0 0.00 0.00 0.05 91 1008.6
20260506190035 37 57 1.7 0.0 0.00 0.00 0.05 91 1008.4
20260506184533 38 59 0.9 0.0 0.00 0.00 0.05 91 1008.3
20260506183033 37 62 0.0 0.0 0.00 0.00 0.04 91 1008.2
20260506181535 37 64 1.7 0.0 0.00 0.00 0.04 90 1008.3
20260506180039 37 44 1.7 0.0 0.00 0.00 0.04 90 1008.2
20260506174530 37 51 3.5 0.0 0.00 0.00 0.04 90 1008.1
20260506173028 37 37 2.6 0.0 0.00 0.00 0.04 89 1008.0
20260506171543 37 36 2.6 0.0 0.00 0.00 0.04 88 1007.9
20260506170026 37 16 2.6 0.0 0.00 0.00 0.04 87 1008.0
20260506164524 38 61 2.6 0.0 0.00 0.00 0.04 85 1007.9
20260506163025 38 55 1.7 0.0 0.00 0.00 0.02 83 1008.2
20260506161534 39 39 2.6 0.0 0.00 0.00 0.02 81 1007.8
20260506160020 40 360 2.6 0.0 0.00 0.00 0.00 79 1007.6
20260506154518 41 314 4.3 0.0 0.00 0.00 0.00 76 1007.5
20260506153016 42 278 1.7 0.0 0.00 0.00 0.00 76 1007.3
20260506151515 42 273 4.3 0.0 0.00 0.00 0.00 74 1007.0
20260506150020 44 315 3.5 0.0 0.00 0.00 0.00 71 1007.0
20260506144514 44 234 3.5 0.0 0.00 0.00 0.00 71 1006.9
20260506143013 45 277 4.3 0.0 0.00 0.00 0.00 70 1006.8